sat.trackr.live / text

‹ back to catalog

STARLINK-37538

NORAD 68844 · 2026-094F

PAYLOAD ACTIVE UNKNOWN

§ Identity

Operator
Country
US
Launch date
2026-04-26
Launch site
AFWTR
Launch vehicle
Mass (kg)
RCS (m²)

Purposes: comms

External: N2YO · Heavens-Above · Gunter

§ Orbital elements

Epoch: 2026-09-19T23:16:48.393120Z

Period
93.91 min
Inclination
97.2851°
Eccentricity
0.0000724
Mean motion
15.33462360 rev/d
Perigee alt
465.0 km
Apogee alt
466.0 km
Semi-major
6,843.6 km
B*
6.0479e-4
RAAN
276.0582°
Arg perigee
71.0994°
Mean anomaly
289.0327°
Rev number
2,257

§ Raw data

STARLINK-375381 68844U 26094F   26262.97000455  .00019511  00000+0  60479-3 0  99942 68844  97.2851 276.0582 0000724  71.0994 289.0327 15.33462360 22577

JSON: /api/v1/satellites/68844 · /tle

For live sub-satellite position, see the globe view (requires WebGL).

§ Visibility from observer

Set your observer location to see the next 7 days of passes ≥ 10°. The values pass through the URL so the page stays shareable.

No JS? Fill the form by hand. The geolocation button needs JavaScript.